| time (UTC) | temp C | wind direction | speed KPH | gust KPH | rain 1hr cm | rain 24hr cm | rain mn cm | humidity % | barometer mb |
| 20260507020228 | 13 | 165 | 8.0 | 8.0 | 0.00 | 0.00 | 0.00 | 69 | 1017.0 |
| 20260507014728 | 13 | 0 | 3.2 | 0.0 | 0.00 | 0.00 | 0.00 | 69 | 1017.0 |
| 20260507013228 | 13 | 0 | 3.2 | 0.0 | 0.00 | 0.00 | 0.00 | 69 | 1017.0 |
| 20260507011728 | 13 | 360 | 3.2 | 8.0 | 0.00 | 0.00 | 0.00 | 68 | 1018.0 |
| 20260507010227 | 13 | 360 | 1.6 | 6.4 | 0.00 | 0.00 | 0.00 | 65 | 1017.0 |
| 20260507004727 | 13 | 0 | 4.8 | 0.0 | 0.00 | 0.00 | 0.00 | 64 | 1017.0 |
| 20260507003227 | 13 | 0 | 4.8 | 0.0 | 0.00 | 0.00 | 0.00 | 63 | 1017.0 |
| 20260507001726 | 13 | 0 | 4.8 | 0.0 | 0.00 | 0.00 | 0.00 | 62 | 1018.0 |
| 20260507000227 | 13 | 360 | 1.6 | 8.0 | 0.00 | 0.00 | 0.00 | 61 | 1017.0 |
| 20260506233226 | 13 | 0 | 4.8 | 0.0 | 0.00 | 0.00 | 0.00 | 61 | 1017.0 |
| 20260506231725 | 13 | 0 | 4.8 | 0.0 | 0.00 | 0.00 | 0.00 | 62 | 1018.0 |
| 20260506230225 | 13 | 360 | 1.6 | 8.0 | 0.00 | 0.00 | 0.00 | 63 | 1017.0 |
| 20260506224725 | 13 | 0 | 4.8 | 0.0 | 0.00 | 0.00 | 0.00 | 65 | 1017.0 |
| 20260506223225 | 14 | 0 | 4.8 | 0.0 | 0.00 | 0.00 | 0.00 | 63 | 1017.0 |
| 20260506221724 | 14 | 0 | 4.8 | 0.0 | 0.00 | 0.00 | 0.00 | 61 | 1018.0 |
| 20260506220224 | 14 | 360 | 1.6 | 6.4 | 0.00 | 0.00 | 0.00 | 60 | 1018.0 |
| 20260506214724 | 14 | 0 | 4.8 | 0.0 | 0.00 | 0.00 | 0.00 | 56 | 1018.0 |
| 20260506213224 | 14 | 0 | 4.8 | 0.0 | 0.00 | 0.00 | 0.00 | 54 | 1018.0 |
| 20260506211723 | 14 | 0 | 4.8 | 0.0 | 0.00 | 0.00 | 0.00 | 53 | 1018.0 |
| 20260506210223 | 15 | 220 | 8.0 | 0.0 | 0.00 | 0.00 | 0.00 | 54 | 1017.0 |
| 20260506204723 | 15 | 220 | 8.0 | 0.0 | 0.00 | 0.00 | 0.00 | 55 | 1017.0 |
| 20260506203223 | 15 | 220 | 8.0 | 0.0 | 0.00 | 0.00 | 0.00 | 54 | 1017.0 |
| 20260506201722 | 15 | 220 | 8.0 | 0.0 | 0.00 | 0.00 | 0.00 | 52 | 1018.0 |
| 20260506200222 | 15 | 230 | 8.0 | 0.0 | 0.00 | 0.00 | 0.00 | 52 | 1017.0 |
| 20260506194722 | 16 | 230 | 8.0 | 0.0 | 0.00 | 0.00 | 0.00 | 52 | 1017.0 |
| 20260506193222 | 16 | 230 | 6.4 | 0.0 | 0.00 | 0.00 | 0.00 | 55 | 1017.0 |
| 20260506191721 | 16 | 230 | 6.4 | 0.0 | 0.00 | 0.00 | 0.00 | 56 | 1017.0 |
| 20260506190221 | 16 | 230 | 8.0 | 0.0 | 0.00 | 0.00 | 0.00 | 56 | 1017.0 |
| 20260506184720 | 16 | 230 | 8.0 | 0.0 | 0.00 | 0.00 | 0.00 | 56 | 1017.0 |
| 20260506183220 | 17 | 230 | 8.0 | 0.0 | 0.00 | 0.00 | 0.00 | 55 | 1017.0 |
| 20260506181720 | 17 | 343 | 1.6 | 1.6 | 0.00 | 0.00 | 0.00 | 51 | 1017.0 |
| 20260506180219 | 17 | 230 | 8.0 | 0.0 | 0.00 | 0.00 | 0.00 | 52 | 1016.0 |
| 20260506174719 | 18 | 230 | 8.0 | 0.0 | 0.00 | 0.00 | 0.00 | 51 | 1016.0 |
| 20260506173218 | 18 | 230 | 8.0 | 0.0 | 0.00 | 0.00 | 0.00 | 50 | 1016.0 |
| 20260506171718 | 20 | 230 | 8.0 | 0.0 | 0.00 | 0.00 | 0.00 | 47 | 1016.0 |
| 20260506170218 | 20 | 0 | 4.8 | 0.0 | 0.00 | 0.00 | 0.00 | 45 | 1016.0 |
| 20260506164718 | 21 | 0 | 4.8 | 0.0 | 0.00 | 0.00 | 0.00 | 37 | 1016.0 |
| 20260506163217 | 21 | 0 | 4.8 | 0.0 | 0.00 | 0.00 | 0.00 | 40 | 1016.0 |
| 20260506161717 | 21 | 0 | 4.8 | 0.0 | 0.00 | 0.00 | 0.00 | 40 | 1016.0 |
| 20260506160217 | 22 | 0 | 4.8 | 0.0 | 0.00 | 0.00 | 0.00 | 35 | 1016.0 |
| 20260506154716 | 22 | 0 | 4.8 | 0.0 | 0.00 | 0.00 | 0.00 | 35 | 1016.0 |
| 20260506153216 | 21 | 260 | 1.6 | 3.2 | 0.00 | 0.00 | 0.00 | 45 | 1016.0 |
| 20260506151715 | 22 | 0 | 4.8 | 0.0 | 0.00 | 0.00 | 0.00 | 39 | 1016.0 |
| 20260506150215 | 22 | 340 | 8.0 | 0.0 | 0.00 | 0.00 | 0.00 | 39 | 1016.0 |
| 20260506144715 | 22 | 340 | 8.0 | 0.0 | 0.00 | 0.00 | 0.00 | 46 | 1016.0 |
| 20260506143214 | 23 | 0 | 4.8 | 0.0 | 0.00 | 0.00 | 0.00 | 43 | 1016.0 |
| 20260506141714 | 23 | 0 | 4.8 | 0.0 | 0.00 | 0.00 | 0.00 | 43 | 1016.0 |
| 20260506140214 | 24 | 0 | 4.8 | 0.0 | 0.00 | 0.00 | 0.00 | 36 | 1016.0 |
| 20260506134714 | 24 | 0 | 4.8 | 0.0 | 0.00 | 0.00 | 0.00 | 36 | 1016.0 |
| 20260506133213 | 24 | 0 | 4.8 | 0.0 | 0.00 | 0.00 | 0.00 | 36 | 1016.0 |
| 20260506131713 | 24 | 0 | 4.8 | 0.0 | 0.00 | 0.00 | 0.00 | 36 | 1016.0 |
| 20260506130213 | 23 | 0 | 4.8 | 0.0 | 0.00 | 0.00 | 0.00 | 38 | 1016.0 |
| 20260506124712 | 22 | 0 | 4.8 | 0.0 | 0.00 | 0.00 | 0.00 | 40 | 1016.0 |
| 20260506123212 | 21 | 110 | 6.4 | 0.0 | 0.00 | 0.00 | 0.00 | 45 | 1016.0 |
| 20260506121712 | 21 | 110 | 6.4 | 0.0 | 0.00 | 0.00 | 0.00 | 45 | 1017.0 |
| 20260506120212 | 20 | 120 | 8.0 | 0.0 | 0.00 | 0.00 | 0.00 | 50 | 1017.0 |
| 20260506114711 | 20 | 120 | 8.0 | 0.0 | 0.00 | 0.00 | 0.00 | 53 | 1016.0 |
| 20260506113211 | 21 | 130 | 14.5 | 0.0 | 0.00 | 0.00 | 0.00 | 47 | 1017.0 |
| 20260506111711 | 21 | 148 | 4.8 | 4.8 | 0.00 | 0.00 | 0.00 | 45 | 1017.0 |
| 20260506110210 | 20 | 120 | 14.5 | 0.0 | 0.00 | 0.00 | 0.00 | 45 | 1017.0 |
| 20260506104710 | 19 | 120 | 14.5 | 0.0 | 0.00 | 0.00 | 0.00 | 42 | 1017.0 |
| 20260506103209 | 19 | 130 | 16.1 | 0.0 | 0.00 | 0.00 | 0.00 | 42 | 1017.0 |
| 20260506101709 | 19 | 130 | 16.1 | 0.0 | 0.00 | 0.00 | 0.00 | 42 | 1018.0 |
| 20260506100209 | 20 | 135 | 4.8 | 4.8 | 0.00 | 0.00 | 0.00 | 50 | 1017.0 |
| 20260506094708 | 20 | 135 | 4.8 | 4.8 | 0.00 | 0.00 | 0.00 | 49 | 1017.0 |
| 20260506093207 | 18 | 120 | 14.5 | 0.0 | 0.00 | 0.00 | 0.00 | 53 | 1017.0 |
| 20260506091707 | 17 | 120 | 14.5 | 0.0 | 0.00 | 0.00 | 0.00 | 53 | 1018.0 |
| 20260506090206 | 18 | 122 | 6.4 | 4.8 | 0.00 | 0.00 | 0.00 | 51 | 1017.0 |
| 20260506084705 | 17 | 100 | 8.0 | 0.0 | 0.00 | 0.00 | 0.00 | 50 | 1017.0 |
| 20260506083205 | 17 | 0 | 4.8 | 0.0 | 0.00 | 0.00 | 0.00 | 51 | 1017.0 |
| 20260506081705 | 17 | 0 | 4.8 | 0.0 | 0.00 | 0.00 | 0.00 | 52 | 1018.0 |
| 20260506080205 | 17 | 0 | 4.8 | 0.0 | 0.00 | 0.00 | 0.00 | 54 | 1017.0 |
| 20260506073204 | 17 | 0 | 4.8 | 0.0 | 0.00 | 0.00 | 0.00 | 58 | 1017.0 |
| 20260506071704 | 16 | 112 | 6.4 | 6.4 | 0.00 | 0.00 | 0.00 | 61 | 1017.0 |
| 20260506070203 | 16 | 112 | 6.4 | 6.4 | 0.00 | 0.00 | 0.00 | 61 | 1017.0 |
| 20260506061701 | 16 | 0 | 3.2 | 0.0 | 0.00 | 0.00 | 0.00 | 61 | 1018.0 |
| 20260506060201 | 16 | 340 | 6.4 | 0.0 | 0.00 | 0.00 | 0.00 | 61 | 1017.0 |
| 20260506050200 | 13 | 0 | 4.8 | 0.0 | 0.00 | 0.00 | 0.00 | 76 | 1017.0 |
| 20260506044700 | 12 | 0 | 4.8 | 0.0 | 0.00 | 0.00 | 0.00 | 79 | 1017.0 |
| 20260506043200 | 12 | 0 | 4.8 | 0.0 | 0.00 | 0.00 | 0.00 | 80 | 1017.0 |
| 20260506041659 | 11 | 0 | 4.8 | 0.0 | 0.00 | 0.00 | 0.00 | 81 | 1017.0 |
| 20260506040159 | 11 | 0 | 4.8 | 0.0 | 0.00 | 0.00 | 0.00 | 81 | 1017.0 |
| 20260506034659 | 11 | 0 | 4.8 | 0.0 | 0.00 | 0.00 | 0.00 | 81 | 1017.0 |
| 20260506033159 | 11 | 0 | 4.8 | 0.0 | 0.00 | 0.00 | 0.00 | 80 | 1017.0 |
| 20260506031658 | 11 | 0 | 4.8 | 0.0 | 0.00 | 0.00 | 0.00 | 80 | 1017.0 |
| 20260506030158 | 11 | 360 | 3.2 | 8.0 | 0.00 | 0.00 | 0.00 | 79 | 1017.0 |
| 20260506024658 | 11 | 0 | 4.8 | 0.0 | 0.00 | 0.00 | 0.00 | 79 | 1017.0 |
| 20260506023158 | 11 | 0 | 4.8 | 0.0 | 0.00 | 0.00 | 0.00 | 79 | 1017.0 |
| 20260506021657 | 11 | 0 | 4.8 | 0.0 | 0.00 | 0.00 | 0.00 | 79 | 1017.0 |